Location: Prairie Dale
(45.6972°N, 104.5033°W)
Time: 11:03:36
(UTC+00:00)

AIST 2D - Visible Passes

Search period start: 25 June 2022 00:00
Search period end: 05 July 2022 00:00
Orbit: 433 x 449 km, 97.1° (Epoch: 24 June)

Date Brightness Start Highest point End Pass type
(mag) Time Alt. Az. Time Alt. Az. Time Alt. Az.
25 Jun ? 04:17:33 10° NNE 04:20:46 43° E 04:22:47 19° SSE visible
25 Jun ? 05:51:36 10° NW 05:52:59 12° WNW 05:54:23 10° W visible
26 Jun ? 03:40:55 10° NE 03:42:55 15° E 03:44:47 10° SE visible
26 Jun ? 05:12:38 10° N 05:15:38 32° WNW 05:18:16 12° SW visible
27 Jun ? 04:34:43 10° NNE 04:38:03 78° ESE 04:40:14 20° S visible
28 Jun ? 03:57:30 10° NE 04:00:16 24° E 04:02:12 15° SE visible
28 Jun ? 05:30:15 10° NNW 05:32:46 20° WNW 05:35:16 10° WSW visible
29 Jun ? 04:51:57 10° N 04:55:14 59° WNW 04:57:36 17° SSW visible
30 Jun ? 04:14:20 10° NNE 04:17:29 39° E 04:19:31 19° SSE visible
30 Jun ? 05:48:07 10° NW 05:49:46 13° WNW 05:51:24 10° W visible
01 Jul ? 03:37:43 10° ENE 03:39:31 14° E 03:41:19 10° SE visible
01 Jul ? 05:09:13 10° N 05:12:16 35° WNW 05:14:51 13° SW visible
02 Jul ? 04:31:15 10° NNE 04:34:34 70° ESE 04:36:43 20° S visible
03 Jul ? 03:54:00 10° NE 03:56:39 22° E 03:58:33 14° SE visible
03 Jul ? 05:26:33 10° NNW 05:29:11 22° WNW 05:31:48 10° WSW visible
04 Jul ? 04:48:13 10° N 04:51:32 67° WNW 04:53:49 19° SSW visible
